Location: Newark
(23.3970°S, 47.6010°W)
Time: 07:48:44
(UTC+00:00)

deb Explorer IX - Pass Details

Date: 25 February 2020
Orbit: 548 x 1100 km, 38.8° (Epoch: 08 April)

Event Time Altitude Azimuth Distance (km) Brightness Sun altitude
Rises 23:50:15 0° 278° (W) 3,388 ? -28.7°
Reaches altitude 10° 23:52:48 10° 270° (W) 2,543 ? -29.2°
Maximum altitude 23:58:33 39° 202° (SSW) 1,422 ? -30.4°
Enters shadow 00:01:56 24° 151° (SSE) 1,957 ? -31.1°
Drops below altitude 10° 00:05:03 10° 135° (SE) 2,874 - -31.7°
Sets 00:08:07 0° 127° (SE) 3,878 - -32.3°
